EW5980 Weather Reports


time (UTC)temp
C
wind
direction
speed
KPH
gust
KPH
rain 1hr
cm
rain 24hr
cm
rain mn
cm
humidity
%
barometer
mb
20260906134556 27 0.0 0.0 0.00 0.00 0.00 62 1014.4
20260906133107 26 0.0 0.0 0.00 0.00 0.00 52 1014.4
20260906131553 25 0.0 0.0 0.00 0.00 0.00 35 1014.4
20260906130100 25 0.0 0.0 0.00 0.00 0.00 29 1014.2
20260906124556 24 0.0 0.0 0.00 0.00 0.00 26 1014.2
20260906123055 24 0.0 0.0 0.00 0.00 0.00 28 1014.1
20260906121551 24 0.0 0.0 0.00 0.00 0.00 30 1014.0
20260906120057 24 0.0 0.0 0.00 0.00 0.00 33 1013.9
20260906114602 24 0.0 0.0 0.00 0.00 0.00 33 1013.7
20260906113054 24 0.0 0.0 0.00 0.00 0.00 33 1013.5
20260906111551 24 0.0 0.0 0.00 0.00 0.00 33 1013.4
20260906110057 24 0.0 0.0 0.00 0.00 0.00 32 1013.4
20260906104559 24 0.0 0.0 0.00 0.00 0.00 32 1013.2
20260906103046 24 0.0 0.0 0.00 0.00 0.00 32 1013.1
20260906101557 24 0.0 0.0 0.00 0.00 0.00 31 1013.0
20260906100055 24 0.0 0.0 0.00 0.00 0.00 30 1013.1
20260906094607 24 0.0 0.0 0.00 0.00 0.00 30 1013.0
20260906093130 24 0.0 0.0 0.00 0.00 0.00 28 1012.9
20260906091606 24 0.0 0.0 0.00 0.00 0.00 30 1012.8
20260906090058 24 0.0 0.0 0.00 0.00 0.00 32 1012.7
20260906084552 24 0.0 0.0 0.00 0.00 0.00 33 1012.7
20260906083058 24 0.0 0.0 0.00 0.00 0.00 34 1012.3
20260906081557 24 0.0 0.0 0.00 0.00 0.00 34 1012.0
20260906080059 24 0.0 0.0 0.00 0.00 0.00 35 1012.0
20260906074556 25 0.0 0.0 0.00 0.00 0.00 36 1011.9
20260906073047 25 0.0 0.0 0.00 0.00 0.00 36 1011.9
20260906071547 25 0.0 0.0 0.00 0.00 0.00 36 1011.8
20260906070053 25 0.0 0.0 0.00 0.00 0.00 36 1011.7
20260906064546 25 0.0 0.0 0.00 0.00 0.00 36 1012.0
20260906063050 25 0.0 0.0 0.00 0.00 0.00 37 1012.1
20260906061556 25 0.0 0.0 0.00 0.00 0.00 37 1012.1
20260906060054 25 0.0 0.0 0.00 0.00 0.00 37 1012.2
20260906054549 25 0.0 0.0 0.00 0.00 0.00 38 1012.2
20260906053051 25 0.0 0.0 0.00 0.00 0.00 38 1012.1
20260906051558 25 0.0 0.0 0.00 0.00 0.00 36 1012.0
20260906050049 25 0.0 0.0 0.00 0.00 0.00 37 1012.2
20260906044600 25 0.0 0.0 0.00 0.00 0.00 37 1012.3
20260906043051 26 0.0 0.0 0.00 0.00 0.00 38 1012.4
20260906041545 26 0.0 0.0 0.00 0.00 0.00 38 1012.4
20260906040105 26 0.0 0.0 0.00 0.00 0.00 39 1012.6
20260906034554 26 0.0 0.0 0.00 0.00 0.00 38 1012.5
20260906033100 26 0.0 0.0 0.00 0.00 0.00 38 1012.6
20260906031556 26 0.0 0.0 0.00 0.00 0.00 38 1012.8
20260906024558 26 0.0 0.0 0.00 0.00 0.00 37 1012.7
20260906023056 26 0.0 0.0 0.00 0.00 0.00 37 1012.9
20260906021554 26 0.0 0.0 0.00 0.00 0.00 37 1012.7
20260906020052 26 0.0 0.0 0.00 0.00 0.00 36 1012.7
20260906014634 26 0.0 0.0 0.00 0.00 0.00 37 1012.6
20260906013101 27 0.0 0.0 0.00 0.00 0.00 37 1012.4
20260906011603 27 0.0 0.0 0.00 0.00 0.00 40 1012.4
20260906010054 27 0.0 0.0 0.00 0.00 0.00 45 1012.2
20260906004549 27 0.0 0.0 0.00 0.00 0.00 48 1012.2
20260906003112 27 0.0 0.0 0.00 0.00 0.00 50 1012.1
20260906001556 27 0.0 0.0 0.00 0.00 0.00 51 1012.1
20260906000052 27 0.0 0.0 0.00 0.00 0.00 55 1012.2
20260905234549 27 0.0 0.0 0.00 0.00 0.00 54 1011.9
20260905233057 27 0.0 0.0 0.00 0.00 0.00 57 1012.0
20260905231557 27 0.0 0.0 0.00 0.00 0.00 56 1012.0
20260905230054 27 0.0 0.0 0.00 0.00 0.00 61 1011.9
20260905224613 27 0.0 0.0 0.00 0.00 0.00 66 1011.9
20260905223058 27 0.0 0.0 0.00 0.00 0.00 69 1012.0
20260905221611 28 0.0 0.0 0.00 0.00 0.00 75 1012.2
20260905220047 28 0.0 0.0 0.00 0.00 0.00 77 1012.3
20260905214548 30 0.0 0.0 0.00 0.00 0.00 71 1012.4
20260905213103 31 0.0 0.0 0.00 0.00 0.00 67 1012.6
20260905211602 32 0.0 0.0 0.00 0.00 0.00 58 1012.6
20260905210057 34 0.0 0.0 0.00 0.00 0.00 56 1012.0
20260905204554 35 0.0 0.0 0.00 0.00 0.00 54 1011.7
20260905203046 35 0.0 0.0 0.00 0.00 0.00 55 1012.1
20260905201618 35 0.0 0.0 0.00 0.00 0.00 56 1012.2
20260905200057 35 0.0 0.0 0.00 0.00 0.00 56 1012.4
20260905194551 35 0.0 0.0 0.00 0.00 0.00 56 1012.5
20260905193056 35 0.0 0.0 0.00 0.00 0.00 56 1012.6
20260905191553 35 0.0 0.0 0.00 0.00 0.00 55 1012.7
20260905190054 35 0.0 0.0 0.00 0.00 0.00 56 1013.0
20260905184556 35 0.0 0.0 0.00 0.00 0.00 57 1013.4
20260905183058 35 0.0 0.0 0.00 0.00 0.00 58 1013.6
20260905181610 35 0.0 0.0 0.00 0.00 0.00 58 1013.8
20260905180052 34 0.0 0.0 0.00 0.00 0.00 60 1014.0
20260905174549 34 0.0 0.0 0.00 0.00 0.00 59 1014.3
20260905173100 33 0.0 0.0 0.00 0.00 0.00 60 1014.5
20260905171556 33 0.0 0.0 0.00 0.00 0.00 59 1014.5
20260905170054 33 0.0 0.0 0.00 0.00 0.00 61 1014.6
20260905164549 33 0.0 0.0 0.00 0.00 0.00 62 1014.8
20260905163054 33 0.0 0.0 0.00 0.00 0.00 62 1015.0
20260905161601 32 0.0 0.0 0.00 0.00 0.00 65 1015.1
20260905160048 32 0.0 0.0 0.00 0.00 0.00 67 1015.2
20260905154616 32 0.0 0.0 0.00 0.00 0.00 68 1015.3
20260905153052 31 0.0 0.0 0.00 0.00 0.00 70 1015.0
20260905151600 31 0.0 0.0 0.00 0.00 0.00 69 1014.9
20260905144556 30 0.0 0.0 0.00 0.00 0.00 75 1015.0
20260905143055 28 0.0 0.0 0.00 0.00 0.00 74 1015.0
20260905141556 27 0.0 0.0 0.00 0.00 0.00 68 1015.0
20260905140048 26 0.0 0.0 0.00 0.00 0.00 41 1014.8